Hiwassee Observed Data For Previous 48 Hours

Caption
Day and Hour Reservoir Elevation (behind dam)* Tailwater Elevation (below dam)* Average Hourly Discharge*
1/17/2018 2 AM EST 1,481.17 1,277.57 0
1/17/2018 3 AM EST 1,481.24 1,277.25 0
1/17/2018 4 AM EST 1,481.24 1,277.36 0
1/17/2018 5 AM EST 1,481.34 1,277.35 0
1/17/2018 6 AM EST 1,481.38 1,277.59 814
1/17/2018 7 AM EST 1,481.31 1,277.63 4,263
1/17/2018 8 AM EST 1,481.19 1,278.33 7,875
1/17/2018 9 AM EST 1,481.04 1,278.61 7,879
1/17/2018 10 AM EST 1,480.97 1,277.87 4,271
1/17/2018 11 AM EST 1,480.97 1,278.30 1,745
1/17/2018 12 PM EST 1,480.92 1,277.89 0
1/17/2018 1 PM EST 1,480.97 1,277.54 0
1/17/2018 2 PM EST 1,480.99 1,277.42 0
1/17/2018 3 PM EST 1,480.97 1,277.63 0
1/17/2018 4 PM EST 1,481.07 1,277.64 0
1/17/2018 5 PM EST 1,481.15 1,277.40 0
1/17/2018 6 PM EST 1,481.17 1,277.51 44
1/17/2018 7 PM EST 1,481.18 1,277.98 4,113
1/17/2018 8 PM EST 1,481.10 1,277.64 4,183
1/17/2018 9 PM EST 1,481.06 1,277.56 4,186
1/17/2018 10 PM EST 1,481.01 1,277.84 4,178
1/17/2018 11 PM EST 1,480.98 1,277.11 203
1/18/2018 12 AM EST 1,481.06 1,277.50 0
1/18/2018 1 AM EST 1,481.03 1,277.33 0
1/18/2018 2 AM EST 1,481.06 1,277.68 0
1/18/2018 3 AM EST 1,481.11 1,277.33 0
1/18/2018 4 AM EST 1,481.13 1,277.35 0
1/18/2018 5 AM EST 1,481.21 1,277.27 0
1/18/2018 6 AM EST 1,481.23 1,277.27 46
1/18/2018 7 AM EST 1,481.13 1,278.12 6,744
1/18/2018 8 AM EST 1,480.95 1,278.21 8,749
1/18/2018 9 AM EST 1,480.83 1,278.66 8,051
1/18/2018 10 AM EST 1,480.75 1,277.67 2,465
1/18/2018 11 AM EST 1,480.75 1,278.10 0
1/18/2018 12 PM EST 1,480.78 1,277.76 0
1/18/2018 1 PM EST 1,480.80 1,277.43 0
1/18/2018 2 PM EST 1,480.80 1,277.31 0
1/18/2018 3 PM EST 1,480.86 1,277.56 0
1/18/2018 4 PM EST 1,480.90 1,277.51 0
1/18/2018 5 PM EST 1,480.98 1,277.35 0
1/18/2018 6 PM EST 1,481.03 1,277.39 43
1/18/2018 7 PM EST 1,481.00 1,277.95 4,101
1/18/2018 8 PM EST 1,480.90 1,277.64 4,177
1/18/2018 9 PM EST 1,480.88 1,277.56 4,168
1/18/2018 10 PM EST 1,480.80 1,277.84 4,182
1/18/2018 11 PM EST 1,480.80 1,277.11 189
1/19/2018 12 AM EST 1,480.85 1,277.57 0
1/19/2018 1 AM EST 1,480.83 1,277.34 0

Elevations are in feet above sea level. Discharges are in cubic feet per second and are reported at the end of the hour.